Zurück zum Katalog

SONATE-2

AktivAmateurfunkPO
NORAD 59112·PAYLOAD·🇩🇪 Germany

Gestartet Mar 4, 2024 von Vandenberg Space Force Base

Loading…

Nächste Überflüge (nächste 24 Stunden)

TLE

AktuellSource: AMSAT

Epoche: Sep 14, 2026, 05:48 UTC

1 59112U 24043Q   26257.24223457  .00044891  00000-0  44284-3 0  9993
2 59112  97.5625  53.6316 0005343 228.2755 131.8048 15.65799600141799

Verfolge SONATE-2 in Echtzeit mit AllMySat

Download on the App Store